Flag for U.S.A. Weather past 2 weeks in Charleston, South Carolina, U.S.A.

Now
74 °F

Passing clouds.


Feels Like: 71 °F
Forecast: 75 / 90 °F
Wind: 5 mph from Northeast

Location: Charleston Air Force Base Reporting Station

Current Time: Jul 29, 2015 at 5:45:26 AM

Latest Report: Jul 29, 2015 at 4:56 AM


Visibility: 10 mi

Pressure: 29.93 "Hg

Humidity: 94%

Dew point: 72 °F

Location of CharlestonLocation

Historic Weather in Charleston — Graph

°F

Charleston temperature yesterday

Maximum temperature yesterday: 90 °F (at 1:56 PM)
Minimum temperature yesterday: 76 °F (at 2:56 AM)
Average temperature yesterday: 83 °F

Past Weeks' High & Low Weather Summary

 TemperatureHumidityPressure
High99 °F (Jul 23, 3:56 PM)100% (Jul 27, 4:56 AM)30.06 "Hg (Jul 27, 4:56 AM)
Low70 °F (Jul 26, 5:56 AM)35% (Jul 25, 1:56 PM)29.72 "Hg (Jul 14, 6:56 PM)
Average83 °F75%29.91 "Hg
* Reported Jul 14 3:56 AM — Jul 29 3:56 AM, Charleston, Weather by CustomWeather, © 2015

Note: Actual official high and low records may vary slightly from our data, if they occured in-between our weather recording intervals... More about our weather records

Advertising

Charleston weather history for previous 24 hours

 ConditionsComfort  
Time TempWeatherWind HumidityBarometerVisibility
3:56 AM
Wed, Jul 29
75 °FPassing clouds.6 mph90%29.94 "Hg10 mi
2:56 AM75 °FClear.5 mph94%29.95 "Hg10 mi
1:56 AM77 °FPassing clouds.5 mph88%29.96 "Hg10 mi
12:56 AM78 °FPassing clouds.3 mph84%29.97 "Hg10 mi
11:56 PM
Tue, Jul 28
80 °FPartly cloudy.5 mph79%29.97 "Hg10 mi
10:56 PM81 °FPartly cloudy.7 mph77%29.98 "Hg10 mi
9:56 PM81 °FPartly cloudy.10 mph77%29.96 "Hg10 mi
8:56 PM82 °FScattered clouds.7 mph72%29.96 "Hg10 mi
7:56 PM83 °FScattered clouds.9 mph68%29.95 "Hg10 mi
6:56 PM85 °FScattered clouds.12 mph63%29.94 "Hg10 mi
5:56 PM87 °FScattered clouds.9 mph55%29.93 "Hg10 mi
4:56 PM88 °FPartly sunny.8 mph52%29.93 "Hg10 mi
3:56 PM90 °FScattered clouds.12 mph52%29.94 "Hg10 mi
2:56 PM90 °FScattered clouds.8 mph54%29.96 "Hg10 mi
1:56 PM90 °FScattered clouds.7 mph57%29.97 "Hg10 mi
12:56 PM89 °FScattered clouds.8 mph55%29.98 "Hg10 mi
11:56 AM88 °FScattered clouds.7 mph57%29.99 "Hg10 mi
10:56 AM86 °FScattered clouds.10 mph65%29.99 "Hg10 mi
9:56 AM84 °FScattered clouds.8 mph74%29.99 "Hg10 mi
8:56 AM82 °FScattered clouds.6 mph82%29.98 "Hg10 mi
7:56 AM79 °FPassing clouds.3 mph88%29.98 "Hg10 mi
6:56 AM76 °FPassing clouds.6 mph94%29.95 "Hg10 mi
5:56 AM76 °FPassing clouds.5 mph94%29.95 "Hg10 mi
Weather by CustomWeather, © 2015

See weather overviewHow to use our weather pages